GSAT0226 (GALILEO 31)

Last updated on Thu Oct 30 2025 00:02:36 GMT+0000 (Coordinated Universal Time)

1 61183U 24167B 25302.26148343 .00000006 00000+0 00000+0 0 9996 2 61183 55.2569 227.6569 0000849 216.7301 318.7734 1.70473406 6912
UTC large
Height (km)
Speed (km/s)
/
Latitude / Longitude
Inclination (degrees)
Orbital Period (minutes)
Azimuth
Elevation
Range (km)
Doppler Factor

Next 0 passes for location: London (51.5072 / 0.1276)

Sorry there are no passes over London.